Wind_Speed
2 4 6 9 6 3 5 4 4 2 1 3 5 6 12 23 20 23 24 25 26 28 28 28 26 26 26 30 33 33 35 37 39 42 41 42 41 40 38 37 35 34 34 34
5 4 7 5 5 3 3 3 2 2 1 3 3 9 10 15 20 26 30 30 24 20 19 20 23 26 27 26 27 32 34 34 36 40 40 42 41 43 41 39 38 36 38 37
6 2 10 6 5 6 3 4 3 5 1 3 4 8 7 5 10 15 17 16 19 20 19 12 9 9 16 23 25 28 30 34 36 36 41 44 46 47 46 46 44 41 36 39
3 3 6 4 5 6 5 7 5 4 3 3 2 5 6 5 11 7 18 10 8 8 8 8 6 3 5 10 17 20 25 32 37 39 41 42 42 45 42 45 45 44 41 39
7 8 6 4 6 6 6 4 4 3 4 3 3 1 7 3 6 6 12 12 13 15 12 11 8 7 5 4 6 12 18 23 29 37 41 42 42 42 44 44 44 43 42 41
4 1 4 7 3 3 9 6 7 4 3 2 5 5 5 3 3 3 5 10 12 14 14 13 11 10 10 11 12 13 13 13 15 22 32 37 40 40 41 41 41 41 39 37
1 1 0 3 6 4 4 6 2 3 2 5 1 3 8 5 1 3 4 11 16 20 25 27 27 24 20 16 14 12 10 9 10 13 18 26 31 35 38 39 39 38 38 38
7 4 7 5 7 8 7 7 6 7 4 3 3 5 5 2 3 7 10 14 21 25 23 24 24 25 25 28 26 20 15 11 10 12 13 16 21 26 31 33 35 36 38 37
6 5 1 2 4 8 6 4 5 7 3 3 3 5 6 3 6 9 18 26 25 24 24 18 19 22 23 23 25 25 25 20 13 10 11 12 16 20 24 26 28 30 32 31
8 3 1 2 4 4 4 8 3 2 2 3 3 3 5 6 7 5 14 19 22 24 23 18 15 17 17 18 19 19 20 20 19 14 11 10 12 13 15 18 20 23 26 26
5 4 0 4 6 9 3 3 3 5 5 5 1 5 6 7 8 8 12 16 17 17 17 19 17 15 15 16 17 16 15 12 13 13 13 11 13 18 20 21 23 24 24 26
6 5 4 6 2 3 3 7 6 5 5 2 3 5 2 9 13 12 6 9 13 11 11 10 11 15 17 19 19 18 15 12 11 12 13 15 18 21 23 23 25 27 29 29
7 3 3 2 2 2 4 3 4 5 3 7 6 5 2 8 9 5 6 12 13 11 11 12 13 15 18 19 19 19 16 14 14 17 19 20 21 24 26 27 27 29 33 36
4 3 5 10 2 4 5 3 2 4 4 4 7 5 7 6 6 7 10 11 11 13 15 16 17 20 22 23 24 25 25 24 24 23 23 24 25 27 29 30 32 35 36 37
3 4 4 5 4 3 3 5 7 6 5 8 2 5 4 7 7 5 9 12 15 16 17 18 18 19 21 23 25 24 25 27 31 32 33 32 32 31 32 33 35 36 37 38
3 4 3 1 3 2 3 6 7 5 4 5 4 15 9 5 9 4 7 8 9 11 12 14 15 16 17 19 21 22 24 27 29 31 33 33 32 32 32 33 34 34 35 35
5 6 3 4 1 4 7 7 9 5 5 6 9 8 6 3 6 5 5 3 4 7 10 11 13 16 18 20 23 24 26 28 30 31 31 32 33 32 32 32 32 31 31 32
6 5 3 3 1 4 2 2 2 8 9 8 9 3 6 6 4 2 2 3 4 6 10 12 13 14 17 19 21 23 26 28 30 32 33 33 34 35 34 33 33 33 33 33
2 5 2 4 3 6 5 6 7 8 7 10 8 3 5 4 1 4 14 6 9 11 15 16 17 19 19 20 21 23 24 27 28 28 30 34 36 37 37 36 34 35 35 34
3 5 3 2 5 9 4 3 5 6 5 8 14 8 6 4 0 3 13 8 14 13 13 15 17 18 21 23 25 26 27 29 31 32 33 33 33 34 37 37 38 37 36 36
4 2 6 4 3 8 7 8 3 6 7 8 12 11 6 2 4 7 10 14 12 10 12 15 17 20 23 24 26 28 29 30 32 33 33 33 34 36 36 36 38 37 38 35
8 7 4 3 2 9 11 4 6 4 11 14 10 5 4 8 12 17 17 14 11 14 18 20 23 25 27 28 29 29 29 30 32 33 35 36 35 37 37 38 37 34 32 30
2 6 6 8 6 1 21 1 8 13 15 8 4 3 6 11 15 18 22 19 20 22 23 23 25 29 28 29 31 33 32 32 33 33 33 35 35 34 34 34 33 33 29 27
4 4 3 4 6 6 11 12 6 10 12 3 4 9 15 18 20 22 24 26 25 24 25 27 28 30 32 30 31 33 33 34 35 34 33 33 33 33 30 29 28 28 26 25
5 12 6 3 2 6 10 8 11 3 5 10 12 14 18 18 23 24 26 27 28 25 27 29 31 33 35 33 33 32 32 33 35 35 32 32 31 29 29 27 26 24 23 21
10 6 6 5 8 6 7 14 7 7 8 12 15 19 20 19 21 21 25 27 26 28 31 33 34 33 32 31 29 28 28 29 32 33 33 31 28 26 26 24 19 16 13 9
Wind_Direction
96 110 191 198 171 138 148 156 173 235 165 148 237 267 278 285 288 279 275 274 270 269 273 267 260 256 252 247 244 242 240 241 241 240 240 241 243 244 245 246 250 248 252 256
48 207 212 121 151 136 135 122 249 309 8 156 348 277 260 269 267 269 276 280 282 285 290 278 263 253 251 252 250 246 244 242 242 243 245 246 247 247 250 254 254 250 251 251
152 229 146 147 143 147 200 171 191 210 37 31 359 305 319 292 265 273 269 285 296 291 294 299 293 275 252 252 253 252 253 250 247 246 246 246 245 248 247 249 251 252 253 253
216 173 136 158 174 137 173 201 154 162 97 226 360 278 303 299 295 310 312 313 353 39 46 36 19 341 296 269 257 257 255 255 253 249 246 248 251 251 258 257 256 257 254 252
233 171 143 152 193 162 198 115 131 94 98 84 316 54 272 341 315 332 28 64 63 56 48 44 38 38 22 358 284 267 260 258 255 252 251 251 252 257 258 260 260 260 258 257
180 118 156 180 91 146 143 84 54 56 89 307 225 156 284 223 188 1 8 38 45 46 43 34 15 350 339 329 313 299 292 283 270 259 255 255 255 257 262 265 266 267 267 264
70 197 292 142 84 45 91 87 359 347 2 223 94 104 243 262 299 294 337 61 64 64 66 61 52 44 33 18 6 353 342 321 295 276 265 262 261 261 263 267 270 272 271 269
153 229 165 181 171 168 186 158 160 196 197 250 111 227 243 121 92 88 95 74 81 58 45 46 47 43 40 40 36 26 4 341 309 286 275 266 263 264 267 269 271 271 271 272
151 243 56 106 146 148 190 187 157 106 29 62 222 286 326 91 80 80 84 70 54 41 32 33 44 39 33 31 28 27 25 15 352 324 302 291 281 277 276 277 275 272 271 271
197 132 51 139 106 38 158 156 86 8 146 252 272 254 227 149 136 119 68 52 26 16 12 16 29 21 23 22 17 15 14 12 11 16 8 357 353 333 312 297 286 280 277 275
143 112 141 122 210 160 136 171 61 122 153 173 186 252 228 134 147 114 83 35 23 28 26 19 14 19 359 348 346 349 349 351 345 330 319 310 323 327 323 314 308 302 294 289
186 128 160 198 246 217 181 185 154 147 221 232 153 256 58 133 135 105 86 28 24 22 15 7 347 336 335 342 345 344 339 328 316 307 302 300 306 307 304 302 303 302 301 294
179 189 88 54 6 342 193 166 149 114 85 197 147 248 188 126 139 124 33 28 29 30 16 354 344 345 342 342 344 347 344 333 317 307 302 300 297 294 291 289 287 290 293 292
92 107 181 208 153 131 169 152 116 148 172 182 220 139 237 282 340 30 52 40 33 12 3 359 357 358 353 348 345 345 345 341 333 326 321 314 303 295 291 289 289 290 290 288
94 87 42 21 96 90 161 166 170 183 196 187 168 200 246 303 318 18 28 18 16 17 11 2 354 347 341 335 334 334 331 328 325 323 321 319 315 306 298 293 290 289 289 288
18 126 114 97 335 4 270 238 217 198 202 257 271 271 207 242 125 42 22 46 38 16 358 347 339 334 331 329 327 327 326 325 324 321 320 320 317 317 314 308 302 297 294 291
140 139 127 165 267 74 298 220 209 192 191 172 216 254 143 149 141 140 134 91 28 5 353 340 332 326 323 323 322 321 318 318 316 317 319 321 320 317 316 315 312 309 305 299
136 108 69 156 56 199 196 13 57 230 247 227 257 140 131 151 167 211 223 104 355 338 334 327 319 314 315 317 317 317 317 315 317 315 315 319 319 317 316 315 313 312 310 307
353 124 92 150 191 310 264 215 177 173 255 213 224 203 155 131 172 256 184 17 338 314 314 315 316 318 320 321 320 320 321 320 320 319 316 311 313 316 317 314 312 311 310 309
105 83 109 95 157 206 250 302 165 118 282 198 184 172 166 132 28 244 176 298 312 308 308 313 316 319 320 321 324 326 327 326 323 321 318 316 314 312 311 311 311 311 309 308
141 100 173 175 198 286 231 217 98 104 240 153 156 158 160 173 241 307 286 300 309 316 318 318 321 322 322 322 322 324 325 324 325 323 320 315 313 312 310 308 308 305 304 303
169 163 180 134 111 268 177 99 178 197 142 142 144 148 274 296 302 307 310 308 304 312 312 310 311 314 318 317 316 316 316 315 315 315 314 312 309 309 307 306 305 303 303 303
209 186 176 179 205 142 183 289 186 158 151 144 131 58 351 318 308 309 307 305 305 309 308 308 308 309 311 312 310 309 309 308 308 309 311 309 308 308 308 306 304 304 302 302
249 160 150 94 236 189 176 151 155 156 134 23 328 297 309 308 303 298 299 300 300 302 305 307 306 305 304 304 302 304 305 304 304 305 308 311 309 306 305 304 303 304 304 302
186 151 166 253 255 110 172 168 145 166 254 298 302 303 304 303 295 292 290 289 288 292 301 301 298 297 297 299 299 299 299 300 300 300 303 306 306 305 305 304 305 301 302 302
179 164 184 212 179 169 178 179 246 272 285 294 293 294 293 291 291 288 282 280 283 292 294 293 290 290 291 292 293 298 298 305 304 302 303 306 307 305 302 300 301 298 302 297
Height
1514 1519 1527 1524 1524 1527 1535 1535 1534 1531 1530 1532 1534 1534 1530 1522 1521 1518 1516 1515 1515 1514 1515 1516 1519 1521 1522 1524 1526 1528 1531 1534 1537 1540 1543 1545 1546 1548 1551 1552 1554 1556 1558 1559
1519 1521 1517 1520 1525 1525 1530 1532 1534 1533 1532 1533 1533 1532 1527 1521 1515 1513 1512 1509 1509 1509 1508 1509 1511 1513 1515 1518 1520 1523 1525 1528 1530 1533 1536 1538 1541 1542 1545 1547 1548 1550 1552 1554
1516 1512 1514 1519 1524 1529 1531 1536 1534 1537 1535 1536 1537 1535 1529 1516 1512 1508 1507 1508 1507 1506 1505 1505 1507 1507 1509 1512 1514 1515 1518 1521 1524 1527 1531 1533 1535 1536 1539 1540 1542 1544 1547 1548
1513 1511 1514 1519 1522 1525 1533 1528 1529 1535 1539 1549 1542 1554 1534 1520 1515 1508 1505 1505 1505 1503 1503 1505 1505 1505 1507 1507 1508 1510 1512 1514 1517 1520 1522 1525 1527 1528 1530 1532 1535 1538 1541 1543
1512 1512 1513 1518 1518 1519 1525 1525 1529 1535 1544 1544 1548 1554 1534 1523 1518 1511 1507 1506 1506 1506 1506 1505 1506 1507 1506 1506 1506 1506 1506 1507 1510 1513 1516 1519 1521 1522 1524 1527 1528 1531 1534 1537
1508 1508 1510 1511 1515 1517 1521 1529 1538 1546 1550 1557 1547 1547 1541 1524 1515 1512 1511 1509 1508 1507 1508 1507 1508 1508 1507 1506 1504 1503 1503 1503 1505 1507 1510 1513 1516 1518 1519 1521 1522 1523 1526 1528
1509 1509 1509 1510 1517 1519 1522 1532 1554 1558 1567 1558 1547 1551 1535 1516 1514 1514 1513 1511 1510 1510 1510 1510 1509 1508 1507 1505 1504 1503 1502 1502 1502 1503 1506 1508 1511 1513 1514 1515 1516 1518 1518 1519
1514 1520 1509 1506 1510 1519 1525 1525 1548 1564 1567 1552 1548 1544 1524 1512 1514 1514 1514 1513 1513 1513 1513 1512 1511 1511 1510 1509 1507 1504 1503 1503 1503 1503 1504 1505 1506 1508 1509 1510 1510 1510 1510 1512
1510 1508 1503 1504 1505 1508 1522 1528 1527 1550 1591 1567 1543 1530 1513 1511 1514 1516 1516 1514 1515 1515 1514 1514 1514 1513 1513 1511 1508 1507 1505 1504 1502 1501 1502 1503 1504 1504 1504 1504 1504 1503 1503 1504
1493 1504 1505 1505 1505 1509 1510 1516 1535 1547 1560 1565 1542 1535 1526 1517 1518 1516 1515 1516 1516 1515 1514 1515 1514 1514 1513 1512 1511 1510 1508 1507 1506 1505 1504 1504 1502 1502 1501 1499 1498 1498 1497 1497
1487 1493 1510 1507 1507 1509 1515 1517 1523 1525 1537 1550 1562 1533 1511 1513 1514 1516 1515 1518 1518 1516 1515 1515 1515 1513 1513 1513 1511 1509 1508 1506 1505 1504 1504 1502 1501 1500 1499 1497 1496 1494 1492 1491
1484 1493 1512 1505 1501 1501 1501 1507 1509 1525 1535 1543 1538 1527 1506 1509 1510 1511 1516 1515 1515 1515 1514 1514 1514 1512 1510 1509 1508 1506 1504 1503 1502 1502 1501 1499 1497 1497 1496 1494 1492 1489 1486 1485
1478 1491 1517 1505 1504 1501 1501 1504 1505 1511 1522 1535 1535 1519 1509 1510 1512 1511 1512 1512 1512 1512 1512 1512 1511 1509 1507 1505 1504 1503 1502 1501 1499 1498 1496 1495 1493 1491 1489 1487 1486 1484 1481 1479
1474 1487 1488 1489 1492 1495 1504 1505 1505 1504 1519 1514 1514 1510 1510 1507 1506 1509 1510 1510 1510 1510 1509 1507 1505 1503 1502 1501 1499 1497 1495 1494 1493 1493 1491 1488 1487 1485 1483 1480 1478 1476 1474 1471
1476 1491 1494 1494 1494 1495 1500 1502 1504 1504 1504 1508 1504 1511 1505 1505 1504 1505 1506 1505 1503 1504 1504 1505 1506 1505 1503 1500 1498 1496 1495 1493 1489 1486 1484 1481 1479 1477 1475 1473 1470 1467 1464 1462
1481 1494 1497 1503 1504 1502 1502 1501 1502 1504 1505 1506 1507 1501 1500 1503 1505 1506 1505 1506 1506 1507 1507 1507 1507 1506 1503 1501 1498 1496 1494 1491 1488 1485 1481 1478 1474 1471 1467 1464 1461 1458 1455 1454
1487 1495 1503 1503 1511 1507 1508 1496 1498 1500 1499 1499 1503 1492 1497 1503 1503 1505 1505 1506 1507 1507 1507 1507 1506 1505 1502 1499 1496 1494 1491 1488 1485 1481 1477 1473 1469 1465 1462 1458 1455 1451 1447 1444
1486 1492 1503 1516 1522 1509 1488 1491 1492 1493 1490 1491 1490 1492 1495 1497 1499 1501 1501 1503 1505 1505 1505 1504 1503 1502 1500 1497 1494 1491 1488 1485 1481 1478 1474 1469 1463 1459 1456 1452 1448 1445 1441 1437
1480 1487 1515 1513 1546 1504 1482 1487 1490 1491 1487 1484 1488 1490 1492 1494 1496 1498 1498 1502 1502 1501 1500 1499 1498 1497 1495 1492 1490 1488 1486 1483 1478 1473 1469 1465 1460 1454 1449 1445 1441 1438 1434 1431
1482 1483 1493 1541 1527 1521 1488 1480 1480 1482 1498 1478 1480 1486 1489 1492 1496 1497 1496 1497 1497 1497 1496 1496 1494 1492 1490 1488 1485 1483 1480 1476 1472 1468 1464 1460 1454 1450 1445 1439 1434 1430 1427 1423
1482 1488 1492 1516 1525 1506 1483 1479 1480 1502 1489 1477 1480 1483 1486 1489 1490 1493 1494 1494 1493 1492 1491 1491 1489 1488 1485 1483 1481 1478 1475 1471 1467 1463 1459 1455 1451 1445 1440 1434 1429 1422 1418 1416
1471 1480 1486 1499 1500 1498 1473 1480 1485 1478 1476 1478 1482 1485 1486 1487 1487 1487 1489 1489 1488 1487 1487 1485 1483 1482 1480 1478 1475 1472 1470 1466 1462 1458 1453 1448 1443 1439 1433 1428 1423 1418 1413 1409
1474 1468 1477 1477 1474 1467 1468 1471 1473 1474 1475 1480 1482 1485 1485 1485 1484 1484 1482 1483 1483 1482 1481 1480 1478 1476 1475 1471 1468 1465 1461 1457 1454 1450 1446 1441 1436 1432 1427 1421 1416 1412 1408 1404
1465 1464 1469 1472 1463 1464 1467 1470 1471 1474 1476 1478 1481 1482 1482 1482 1481 1480 1479 1477 1477 1476 1474 1473 1471 1469 1467 1465 1462 1457 1453 1450 1446 1442 1439 1434 1430 1425 1421 1416 1411 1407 1403 1399
1455 1458 1464 1467 1462 1464 1466 1468 1470 1472 1473 1475 1476 1477 1477 1477 1475 1475 1473 1472 1471 1470 1469 1467 1465 1463 1460 1458 1454 1451 1447 1442 1438 1434 1431 1428 1424 1420 1415 1411 1407 1403 1400 1397
1445 1449 1454 1459 1455 1457 1462 1466 1467 1468 1469 1471 1471 1471 1472 1471 1471 1470 1468 1467 1465 1463 1461 1460 1458 1454 1452 1449 1446 1443 1439 1435 1431 1426 1424 1421 1417 1413 1410 1406 1404 1401 1398 1395